Regional Weather Roundup
Issued by NWS

Home | Current Version | Previous Version | Graphics & Text | Print | Product List | Glossary On
Versions: 1 2 3 4 5 6 7 8 9 10 11 12 13 14 15 16 17 18 19 20 21 22 23 24 25 26 27 28 29 30 31 32 33 34 35 36 37 38 39 40 41 42 43 44 45 46 47 48 49 50
000
ASUS45 KPSR 201410
RWRAZ

ARIZONA REGIONAL HOURLY WEATHER ROUNDUP
NATIONAL WEATHER SERVICE PHOENIX AZ
700 AM MST WED AUG 20 2014

NOTE: FAIR INDICATES FEW OR NO CLOUDS BELOW 12,000 FEET WITH NO
SIGNIFICANT WEATHER AND/OR OBSTRUCTIONS TO VISIBILITY.

AZZ001>003-036-201500-
NORTHWEST ARIZONA

CITY           SKY/WX    TMP DP  RH WIND       PRES   REMARKS
BULLHEAD CITY  PTSUNNY   75  68  78 NE3       29.86R
KINGMAN        MOSUNNY   63  57  81 CALM      30.01R
$$

AZZ004>008-015-016-018-201500-
NORTH CENTRAL ARIZONA

CITY           SKY/WX    TMP DP  RH WIND       PRES   REMARKS
GRAND CANYON     N/A     50  48  93 CALM      30.22R
WILLIAMS       SUNNY     57  52  82 SE6       30.28R
PRESCOTT       SUNNY     57  53  86 CALM      30.14R
FLAGSTAFF      MOSUNNY   52  49  89 CALM      30.25R
PAYSON         MOSUNNY   59  57  94 CALM      30.17R
PAGE           SUNNY     68  59  73 N5        30.04R
$$

AZZ009>014-017-201500-
NORTHEAST ARIZONA

CITY           SKY/WX    TMP DP  RH WIND       PRES   REMARKS
WINSLOW        MOSUNNY   62  57  83 E3        30.13R
SAINT JOHNS    PTSUNNY   61  51  70 CALM      30.17R
SHOW LOW       CLOUDY    57  48  72 S10       30.23R
$$

AZZ023-201500-
GREATER PHOENIX AREA

CITY           SKY/WX    TMP DP  RH WIND       PRES   REMARKS
PHOENIX        MOSUNNY   76  66  71 E9        29.90R
BUCKEYE          N/A     77  64  65 NE3       29.90R
GLENDALE       MOSUNNY   75  66  73 CALM      29.92R
LUKE AFB       NOT AVBL
DEER VALLEY    SUNNY     75  63  66 NE7       29.92R
SCOTTSDALE     SUNNY     76  68  76 CALM      29.94R
MESA-GATEWAY   MOSUNNY   73  64  73 SE5       29.94R
CHANDLER       MOSUNNY   77  68  73 NE3       29.92R
$$

AZZ027-028-201500-
SOUTHWEST MARICOPA COUNTY AND PINAL COUNTY

CITY           SKY/WX    TMP DP  RH WIND       PRES   REMARKS
CASA GRANDE    SUNNY     75  64  69 CALM      29.94R
GILA BEND      SUNNY     79  66  65 CALM      29.89
$$

AZZ503-504-507>509-201500-
SOUTHEAST ARIZONA

CITY           SKY/WX    TMP DP  RH WIND       PRES   REMARKS
TUCSON         SUNNY     75  63  66 SE8       30.02R
DAVIS-MONTHAN  SUNNY     72  65  79 SE5       30.01R
RYAN FIELD       N/A     73  64  73 E8        30.01R
NOGALES        SUNNY     65  60  84 CALM      30.08R
SIERRA VISTA   MOSUNNY   64  63  94 CALM      30.13R
DOUGLAS        MOSUNNY   63  61  93 CALM      30.10R
SAFFORD        MOSUNNY   67  64  90 CALM      30.04R
$$

AZZ020-021-025-026-031-201500-
SOUTHWEST ARIZONA

CITY           SKY/WX    TMP DP  RH WIND       PRES   REMARKS
YUMA           PTSUNNY   84  67  56 E8        29.81R
$$

CAZ031-033-041-043-047-048-061-201500-
SOUTHERN CALIFORNIA

CITY           SKY/WX    TMP DP  RH WIND       PRES   REMARKS
DOWNTOWN L.A.  CLOUDY    69  58  67 CALM      29.91R
L.A. AIRPORT   MOCLDY    70  57  63 E5        29.92R
SAN DIEGO      MOCLDY    70  59  68 CALM      29.92R
BURBANK        CLOUDY    66  58  75 SE6       29.93R
ONTARIO        MOCLDY    64  59  83 CALM      29.93R
RIVERSIDE      PTCLDY    64  59  83 CALM      29.92R
PALM SPRINGS   MOCLDY    79  50  36 E7        29.83R
EL CENTRO NAS  MOCLDY    78  43  28 S7        29.80R
IMPERIAL       PTCLDY    77  46  33 S3        29.79R
BLYTHE         PTSUNNY   82  53  36 S13       29.81R
NEEDLES        MOSUNNY   82  62  50 CALM      29.86R
$$

NVZ020-UTZ003-201500-
SOUTHERN NEVADA-UTAH

CITY           SKY/WX    TMP DP  RH WIND       PRES   REMARKS
LAS VEGAS      MOSUNNY   75  53  46 S7        29.88R
SALT LAKE CITY CLOUDY    63  56  78 SE14      29.99R
$$

NMZ009-TXZ055-201500-
NEW MEXICO-WEST TEXAS

CITY           SKY/WX    TMP DP  RH WIND       PRES   REMARKS
ALBUQUERQUE    PTSUNNY   67  53  61 SE5       30.11R
EL PASO        MOSUNNY   71  59  65 SW15      30.01R
$$


........................KEY........................
SKY/WX - SKY CONDITION/WEATHER
TMP    - TEMPERATURE IN FAHRENHEIT
DP     - DEW POINT IN FAHRENHEIT
RH     - RELATIVE HUMIDITY IN PERCENT
WIND   - DIRECTION AND SPEED IN MILES PER HOUR (MPH)
VRB    - VARIABLE WIND DIRECTION
PRES   - MEAN SEA LEVEL PRESSURE IN INCHES OF MERCURY
         F - FALLING PRESSURE   R - RISING PRESSURE
         S - STEADY PRESSURE
VSB    - VISIBILITY IN MILES
HX     - HEAT INDEX IN FAHRENHEIT
WCI    - WIND CHILL INDEX IN FAHRENHEIT
TC     - TEMPERATURE IN CELSIUS WHICH IS ALSO KNOWN AS
         TEMPERATURE IN CENTIGRADE
AFB    - AIR FORCE BASE
         LUKE AFB IS LUKE AIR FORCE BASE
         DAVIS-MONTHAN IS DAVIS-MONTHAN AIR FORCE BASE
NAS    - NAVAL AIR STATION
         EL CENTRO NAS IS EL CENTRO NAVAL AIR STATION
N/A    - NOT AVAILABLE



USA.gov is the U.S. government's official web portal to all federal, state and local government web resources and services.